W4OCD Weather Reports


time (UTC)temp
C
wind
direction
speed
KPH
gust
KPH
rain 1hr
cm
rain 24hr
cm
rain mn
cm
humidity
%
barometer
mb
20260505004425 20 203 0.0 0.0 0.00 0.00 0.00 55 1013.4
20260505003922 20 220 0.0 0.0 0.00 0.00 0.00 55 1013.4
20260505003419 20 220 0.0 0.0 0.00 0.00 0.00 55 1013.3
20260505002915 20 220 0.0 0.0 0.00 0.00 0.00 54 1013.5
20260505002412 21 221 0.0 0.0 0.00 0.00 0.00 55 1013.2
20260505001910 21 221 0.0 0.0 0.00 0.00 0.00 54 1013.4
20260505001407 21 221 0.0 0.0 0.00 0.00 0.00 51 1013.3
20260505000904 22 221 0.0 0.0 0.00 0.00 0.00 52 1013.3
20260505000402 22 222 0.0 0.0 0.00 0.00 0.00 52 1013.3
20260504235858 22 231 4.8 4.8 0.00 0.00 0.00 48 1013.3
20260504235356 23 222 1.6 1.6 0.00 0.00 0.00 50 1013.6
20260504234852 23 217 1.6 3.2 0.00 0.00 0.00 47 1013.3
20260504234350 23 217 3.2 3.2 0.00 0.00 0.00 47 1013.1
20260504233846 24 222 4.8 8.0 0.00 0.00 0.00 44 1013.3
20260504233342 24 216 0.0 0.0 0.00 0.00 0.00 46 1013.5
20260504232839 24 229 6.4 9.7 0.00 0.00 0.00 42 1013.2
20260504232336 24 228 8.0 11.3 0.00 0.00 0.00 43 1013.6
20260504231832 25 202 6.4 8.0 0.00 0.00 0.00 43 1013.6
20260504231329 24 204 4.8 4.8 0.00 0.00 0.00 45 1013.4
20260504230825 25 209 3.2 3.2 0.00 0.00 0.00 44 1013.4
20260504230323 25 176 4.8 4.8 0.00 0.00 0.00 42 1013.4
20260504225822 25 199 3.2 3.2 0.00 0.00 0.00 44 1013.5
20260504225318 25 189 3.2 3.2 0.00 0.00 0.00 44 1013.6
20260504224815 25 222 6.4 8.0 0.00 0.00 0.00 43 1013.6
20260504224312 25 179 4.8 4.8 0.00 0.00 0.00 42 1013.5
20260504223809 25 190 8.0 11.3 0.00 0.00 0.00 41 1013.6
20260504223304 25 218 9.7 12.9 0.00 0.00 0.00 42 1013.6
20260504222801 25 247 9.7 11.3 0.00 0.00 0.00 40 1013.7
20260504222258 25 267 6.4 9.7 0.00 0.00 0.00 39 1013.6
20260504221756 25 240 11.3 12.9 0.00 0.00 0.00 38 1013.8
20260504221253 26 238 4.8 8.0 0.00 0.00 0.00 42 1013.7
20260504220749 25 200 6.4 11.3 0.00 0.00 0.00 39 1014.1
20260504220246 26 204 4.8 8.0 0.00 0.00 0.00 42 1014.1
20260504215744 26 226 12.9 14.5 0.00 0.00 0.00 39 1013.8
20260504215240 25 251 11.3 12.9 0.00 0.00 0.00 39 1014.0
20260504214736 26 202 1.6 3.2 0.00 0.00 0.00 39 1013.8
20260504214233 26 235 6.4 8.0 0.00 0.00 0.00 36 1013.8
20260504213730 26 184 8.0 8.0 0.00 0.00 0.00 37 1014.1
20260504213226 26 205 8.0 9.7 0.00 0.00 0.00 40 1014.1
20260504212723 26 193 8.0 11.3 0.00 0.00 0.00 39 1013.8
20260504212220 26 198 4.8 8.0 0.00 0.00 0.00 37 1014.1
20260504211717 26 200 9.7 11.3 0.00 0.00 0.00 36 1014.1
20260504211213 26 223 8.0 9.7 0.00 0.00 0.00 40 1014.1
20260504210711 26 214 9.7 11.3 0.00 0.00 0.00 38 1014.1
20260504210207 26 204 4.8 9.7 0.00 0.00 0.00 40 1014.1
20260504205704 26 236 1.6 4.8 0.00 0.00 0.00 41 1014.1
20260504205202 26 230 11.3 12.9 0.00 0.00 0.00 38 1014.1
20260504204700 26 203 6.4 9.7 0.00 0.00 0.00 36 1014.1
20260504204159 26 238 11.3 12.9 0.00 0.00 0.00 37 1014.2
20260504203657 26 265 12.9 14.5 0.00 0.00 0.00 39 1014.1
20260504203155 26 204 6.4 8.0 0.00 0.00 0.00 40 1014.2
20260504202655 26 190 3.2 3.2 0.00 0.00 0.00 38 1014.1
20260504202152 26 207 3.2 3.2 0.00 0.00 0.00 39 1014.4
20260504201649 26 190 4.8 4.8 0.00 0.00 0.00 39 1014.2
20260504201146 25 204 8.0 9.7 0.00 0.00 0.00 40 1014.5
20260504200643 25 198 6.4 9.7 0.00 0.00 0.00 34 1014.6
20260504200140 26 204 8.0 11.3 0.00 0.00 0.00 41 1014.5
20260504195636 26 247 4.8 4.8 0.00 0.00 0.00 35 1014.7
20260504195132 26 203 6.4 8.0 0.00 0.00 0.00 35 1014.9
20260504194629 26 199 11.3 12.9 0.00 0.00 0.00 37 1014.8
20260504194125 26 188 8.0 9.7 0.00 0.00 0.00 40 1015.0
20260504193622 26 234 6.4 8.0 0.00 0.00 0.00 35 1015.0
20260504193120 26 183 3.2 3.2 0.00 0.00 0.00 41 1015.2
20260504192618 24 234 6.4 8.0 0.00 0.00 0.00 42 1015.1
20260504192116 24 224 4.8 4.8 0.00 0.00 0.00 43 1015.2
20260504191614 25 207 6.4 8.0 0.00 0.00 0.00 42 1015.1
20260504191110 25 227 3.2 3.2 0.00 0.00 0.00 41 1015.3
20260504190606 25 178 6.4 8.0 0.00 0.00 0.00 39 1015.3
20260504185559 25 261 4.8 4.8 0.00 0.00 0.00 38 1015.7
20260504185056 25 196 6.4 8.0 0.00 0.00 0.00 39 1015.6
20260504184551 25 193 9.7 11.3 0.00 0.00 0.00 42 1015.5
20260504184047 25 188 4.8 4.8 0.00 0.00 0.00 42 1015.6
20260504183544 25 192 6.4 8.0 0.00 0.00 0.00 39 1015.7
20260504183042 25 206 1.6 3.2 0.00 0.00 0.00 43 1016.1
20260504182539 25 202 3.2 3.2 0.00 0.00 0.00 43 1015.9
20260504182036 25 219 3.2 4.8 0.00 0.00 0.00 41 1016.0
20260504181533 25 202 8.0 8.0 0.00 0.00 0.00 48 1016.3
20260504181031 24 196 4.8 4.8 0.00 0.00 0.00 44 1016.1
20260504180530 25 212 8.0 11.3 0.00 0.00 0.00 48 1016.0
20260504180028 24 0 0.0 0.0 0.00 0.00 0.00 44 1016.2
20260504175525 24 306 6.4 8.0 0.00 0.00 0.00 44 1016.4
20260504175022 23 268 11.3 12.9 0.00 0.00 0.00 45 1016.6
20260504174520 23 187 3.2 4.8 0.00 0.00 0.00 48 1016.6
20260504174017 23 181 3.2 3.2 0.00 0.00 0.00 46 1016.6
20260504173513 23 271 6.4 9.7 0.00 0.00 0.00 44 1016.5
20260504173011 23 223 6.4 8.0 0.00 0.00 0.00 48 1016.9
20260504172507 23 187 6.4 8.0 0.00 0.00 0.00 45 1016.6
20260504172003 23 242 8.0 8.0 0.00 0.00 0.00 46 1016.6
20260504171500 22 258 6.4 8.0 0.00 0.00 0.00 47 1016.7
20260504170957 22 232 11.3 12.9 0.00 0.00 0.00 48 1016.8
20260504170453 22 258 8.0 9.7 0.00 0.00 0.00 48 1016.8
20260504160413 21 268 9.7 11.3 0.00 0.00 0.00 53 1017.9
20260504150837 20 214 0.0 0.0 0.00 0.00 0.00 54 1017.7
20260504150334 20 239 8.0 9.7 0.00 0.00 0.00 58 1017.7
20260504141304 18 200 4.8 4.8 0.00 0.00 0.00 64 1017.7
20260504140800 18 200 6.4 9.7 0.00 0.00 0.00 64 1017.9
20260504140256 18 184 4.8 4.8 0.00 0.00 0.00 66 1017.9
20260504130725 14 185 0.0 0.0 0.00 0.00 0.00 81 1018.1
20260504130220 13 197 0.0 0.0 0.00 0.00 0.00 84 1018.2
20260504120145 8 131 0.0 0.0 0.00 0.00 0.00 98 1018.0
20260504110612 7 116 0.0 0.0 0.00 0.00 0.00 98 1017.7
20260504110108 7 128 0.0 0.0 0.00 0.00 0.00 98 1017.5
20260504100534 7 97 0.0 0.0 0.00 0.00 0.00 97 1017.1
20260504081927 8 132 0.0 0.0 0.00 0.00 0.00 96 1017.2
20260504081424 8 132 0.0 0.0 0.00 0.00 0.00 96 1017.3
20260504080920 8 132 0.0 0.0 0.00 0.00 0.00 96 1017.2
20260504080417 8 131 0.0 0.0 0.00 0.00 0.00 96 1017.2
20260504070344 8 131 0.0 0.0 0.00 0.00 0.00 95 1017.5
20260504050732 9 99 0.0 0.0 0.00 0.00 0.00 91 1018.5
20260504050229 9 106 0.0 0.0 0.00 0.00 0.00 91 1018.4
20260504045727 9 160 0.0 0.0 0.00 0.00 0.00 91 1018.6
20260504045221 10 123 0.0 0.0 0.00 0.00 0.00 91 1018.4
20260504044719 10 154 0.0 0.0 0.00 0.00 0.00 90 1018.5
20260504044217 10 166 0.0 0.0 0.00 0.00 0.00 90 1018.5
20260504043714 10 139 0.0 0.0 0.00 0.00 0.00 90 1018.4
20260504043210 10 131 0.0 0.0 0.00 0.00 0.00 89 1018.6
20260504042708 10 167 0.0 0.0 0.00 0.00 0.00 88 1018.5
20260504042204 10 107 0.0 0.0 0.00 0.00 0.00 88 1018.6
20260504041700 10 117 0.0 0.0 0.00 0.00 0.00 88 1018.7
20260504041156 10 131 0.0 0.0 0.00 0.00 0.00 88 1018.7
20260504040653 10 116 0.0 0.0 0.00 0.00 0.00 88 1018.8
20260504040150 10 159 0.0 0.0 0.00 0.00 0.00 87 1018.8
20260504035647 10 131 0.0 0.0 0.00 0.00 0.00 86 1018.8
20260504035144 10 113 0.0 0.0 0.00 0.00 0.00 86 1019.2
20260504034641 10 159 0.0 0.0 0.00 0.00 0.00 85 1019.0
20260504034138 10 160 0.0 0.0 0.00 0.00 0.00 85 1019.2
20260504033636 10 159 0.0 0.0 0.00 0.00 0.00 85 1019.2
20260504033133 10 159 0.0 0.0 0.00 0.00 0.00 85 1019.0
20260504032630 11 160 0.0 0.0 0.00 0.00 0.00 85 1018.8
20260504032127 11 136 0.0 0.0 0.00 0.00 0.00 82 1018.7
20260504031624 11 129 0.0 0.0 0.00 0.00 0.00 82 1018.7
20260504031120 11 113 0.0 0.0 0.00 0.00 0.00 82 1018.8
20260504030617 11 113 0.0 0.0 0.00 0.00 0.00 81 1018.8
20260504030114 11 132 0.0 0.0 0.00 0.00 0.00 80 1018.8
20260504025610 11 126 0.0 0.0 0.00 0.00 0.00 80 1018.7
20260504025108 11 139 0.0 0.0 0.00 0.00 0.00 79 1018.6
20260504024605 12 135 0.0 0.0 0.00 0.00 0.00 79 1018.6
20260504024101 12 149 0.0 0.0 0.00 0.00 0.00 78 1018.5
20260504023557 12 136 0.0 0.0 0.00 0.00 0.00 77 1018.7
20260504023054 12 118 0.0 0.0 0.00 0.00 0.00 77 1018.5
20260504022550 12 147 0.0 0.0 0.00 0.00 0.00 77 1018.8
20260504022046 12 147 0.0 0.0 0.00 0.00 0.00 76 1018.6
20260504021544 12 148 0.0 0.0 0.00 0.00 0.00 75 1018.6
20260504021040 12 133 0.0 0.0 0.00 0.00 0.00 73 1018.5
20260504020537 12 128 0.0 0.0 0.00 0.00 0.00 73 1018.0
20260504020034 12 138 0.0 0.0 0.00 0.00 0.00 73 1018.2
20260504015530 12 138 0.0 0.0 0.00 0.00 0.00 73 1018.2
20260504015026 13 138 0.0 0.0 0.00 0.00 0.00 73 1018.2
20260504014523 13 138 0.0 0.0 0.00 0.00 0.00 73 1018.4
20260504014020 13 131 0.0 0.0 0.00 0.00 0.00 72 1018.1
20260504013518 13 140 0.0 0.0 0.00 0.00 0.00 70 1018.0
20260504013015 14 81 0.0 0.0 0.00 0.00 0.00 68 1017.8
20260504012512 14 63 0.0 0.0 0.00 0.00 0.00 68 1017.9
20260504012010 15 234 0.0 0.0 0.00 0.00 0.00 68 1017.8
20260504011506 15 234 0.0 0.0 0.00 0.00 0.00 66 1017.8
20260504011002 15 233 0.0 0.0 0.00 0.00 0.00 63 1017.9
20260504010458 15 233 0.0 0.0 0.00 0.00 0.00 63 1017.7
20260504005954 15 233 0.0 0.0 0.00 0.00 0.00 63 1018.1
20260504005451 15 233 0.0 0.0 0.00 0.00 0.00 62 1017.7
20260504004949 16 233 0.0 0.0 0.00 0.00 0.00 61 1017.8